星链-32468 (STARLINK-32468)

导读

STARLINK-32468是美国SpaceX公司星链(Starlink)卫星互联网计划中的一颗低轨通信卫星,于2024年11月30日发射入轨。星链项目旨在为全球偏远地区提供低延迟高速宽带服务,已在60多个国家和地区落地服务。该卫星运行于约550公里高度的近圆低轨道,属于星链大规模星座组网的一部分,助力SpaceX实现数万颗低轨卫星覆盖全球的网络布局。

基本信息
目录编号:
62149
目录名称:
STARLINK-32468
国际标识:
2024-224L
轨道中心:
EARTH
卫星名称:
星链-32468
卫星全名:
星链-32468 (STARLINK-32468)
卫星状态:
在轨 (已飞行564 天)
发射日期:
2024-11-30 UTC
国别 :
美国 (US)
星等 :
--
轨道信息
数据来源 国际轨道数据
星历时间: 2026-06-17T00:55:56+0800
1天前
查看轨道信息
半长轴: 6861.163km
偏心率: 0.0001269
轨道倾角: 43.004°
近地点辐角 268.077°
升交点赤经 318.882°
平近点角 91.994°
近地点: 482.155km
远地点: 483.897km
周期: 94.266分钟
每日圈数: 15.275878
详细信息
固有亮度:
5
最大亮度:
2.5
卫星平台:
Starlink V1.0
覆盖范围:
全球
运营商:
太空探索技术公司
运营商所在国:
美国
制造商(研发单位):
太空探索技术公司
制造商所在国:
美国
使用方式:
暂无
卫星简介
Starlink 计划是 SpaceX 推出的全球卫星互联网项目,通过发射低轨道卫星,为全球尤其是偏远地区提供高速、低延迟的互联网服务。自 2019 年起,Starlink 已部署数千颗卫星,旨在缩小全球数字鸿沟,推动互联网普及。该项目还为军事、航空等行业提供通信支持,带来广泛经济效益。
2D轨道图
3D轨道图
轨道高度分析图
轨道倾角分析图
轨道综合分析图
查看轨道综合分析图